Hourly Data Report for October 03, 2017

All times are specified in Local Standard Time (LST). Add 1 hour to adjust for Daylight Saving Time where and when it is observed.

HART ISLAND (AUT)
NOVA SCOTIA

45°21'00.000" N
60°59'00.000" W
8.20 m
8202318
71419
WRN

Download Data

Hourly Data (October 2017)
Hourly Data Report for October 3, 2017
Temp Definition
°C
Dew Point Temp Definition
°C
Rel Hum Definition
%
Wind Dir Definition
10's deg

Wind Spd Definition
km/h
Visibility Definition
km
Stn Press Definition
kPa
Hmdx Definition


Wind Chill Definition


Weather Definition


TIME
00:00 10.6 5.2 69 34 39   102.85     LegendNANA
01:00 10.6 5.1 69 35 36   102.90     LegendNANA
02:00 10.6 4.4 66 35 38   102.96     LegendNANA
03:00 10.7 4.2 64 35 38   103.01     LegendNANA
04:00 10.5 5.1 69 35 30   103.09     LegendNANA
05:00 10.5 5.1 69 35 32   103.15     LegendNANA
06:00 10.7 4.7 67 35 32   103.20     LegendNANA
07:00 10.7 5.9 72 35 27   103.27     LegendNANA
08:00 11.2 5.6 69 36 31   103.31     LegendNANA
09:00 11.5 5.1 65 36 33   103.31     LegendNANA
10:00 11.7 3.6 58 36 29   103.33     LegendNANA
11:00 12.3 4.1 57 1 20   103.29     LegendNANA
12:00 13.5 4.7 55 32 18   103.26     LegendNANA
13:00 13.7 5.8 59 32 21   103.20     LegendNANA
14:00 14.1 5.8 57 31 31   103.19     LegendNANA
15:00 13.1 6.6 65 30 38   103.14     LegendNANA
16:00 12.7 6.0 64 31 34   103.08     LegendNANA
17:00 12.1 5.4 63 32 29   103.07     LegendNANA
18:00 11.6 5.9 68 32 24   103.07     LegendNANA
19:00 11.4 6.0 69 33 24   103.11     LegendNANA
20:00 11.3 5.9 69 33 18   103.10     LegendNANA
21:00 10.4 6.1 75 28 10   103.03     LegendNANA
22:00 8.9 6.3 84 24 12   102.98     LegendNANA
23:00 8.8 6.5 85 23 11   102.91     LegendNANA

Notes on Data Quality.

Legend

  • E = Estimated
  • M = Missing
  • NA = Not Available
  • ‡ = Partner data that is not subject to review by the National Climate Archives
Date modified: